Location: Ernsee
(50.8780°N, 12.0389°E)
Time: 01:24:59
(UTC+00:00)

NOAA 6 - Pass Details

Date: 20 January 2020
Orbit: 773 x 787 km, 98.7° (Epoch: 28 February)

Event Time Altitude Azimuth Distance (km) Brightness Sun altitude
Rises 05:50:20 0° 10° (N) 3,289 7.2 -11.4°
Reaches altitude 10° 05:52:45 10° 4° (N) 2,358 6.4 -11.0°
Maximum altitude 05:57:38 43° 295° (WNW) 1,100 4.4 -10.3°
Drops below altitude 10° 06:02:30 10° 225° (SW) 2,346 6.3 -9.5°
Sets 06:04:54 0° 219° (SW) 3,270 7.1 -9.2°
